Location: Clermont
(50.2608°N, 4.3172°E)
Time: 08:55:14
(UTC+00:00)

BREEZE-M DEB (TANK) - Pass Details

Date: 13 August 2020
Orbit: 433 x 13232 km, 46.0° (Epoch: 20 September)

Event Time Altitude Azimuth Distance (km) Brightness Sun altitude
Rises 23:01:32 0° 278° (W) 7,845 8.9 -24.7°
Reaches altitude 10° 23:08:46 10° 276° (W) 5,068 7.9 -24.9°
Enters shadow 23:18:26 47° 219° (SW) 1,262 4.2 -25.1°
